Starlink 32512

operational
NORAD ID: 62027 Int'l Des: 2024-213 Owner: SPXS Country: US Constellation: starlink
LEOCIRCULAR

About Starlink 32512

Description loading...

Live Position

Loading 3D Globe...

Upcoming Passes

Altitude History

Altitude vs Time

uPlot chart will show altitude changes over time

Two-Line Element Set

1 62027U 24213V 25353.78259032 .00009069 00000-0 31796-3 0 9996
2 62027 53.1591 179.0749 0001093 90.5993 269.5133 15.30199518 60926
Epoch: Dec 19, 2025 • Age: 10 hours

Current Status

Altitude 478.8 km
Velocity 7.63 km/s
Sub-Earth Point 43.11°N, 153.15°E
Launch Date Nov 18, 2024
Age 1 years
Type internet

Technical Details

Classification Payload
Mass 730.00 kg
Dry Mass 700.00 kg
Total Mass 730.00 kg
Length 0.30 m
Diameter 4.10 m
Span 29.00 m
Shape Box + pan
Manufacturer SPXS
Bus Type Starlink V2M
Phase Status In Orbit
Owner/State SPXS/US

Large Constellations

Loading constellations...